Flight Information

DEPARTURE
PRESCOTT, AZ
Elevation:
5045
Runways:
3R/21L - 7619x150 - ASPH-G
3L/21R - 4846x60 - ASPH-G
12/30 - 4408x75 - ASPH-G
ATIS:
127.2
Ground:
121.7
Tower:
PRESCOTT TOWER 125.3
DESTINATION
,
Elevation:
TPA:
1000 (est.)


6496.8 NM77° True-13° Var63° HDG

Flight Plan:
(click to file on line)

1. Type
2. Aircraft Identification
3. Aircraft Type / Special Equipment
4. True Airspeed
kts
5. Departure Airport
(ICAO code)
6. Arriving Airport
(ICAO code)
7. Cruising Altitude
ft
8. Alternate Airport
(ICAO code)
9. Route of Flight
10. Remarks


00:00:00 Departure ATIS: Destination ATIS:

Clearance Limit:
Route:
Altitude: Expect in minutes
Frequency:
Transponder: (7500 Hijack / 7600 Lost Comms / 7700 Emergency)


KPRC 100553Z AUTO 21005KT 10SM CLR M01/M12 A3013 RMK AO2 SLP192 T10111117 10106 21028 53011
Time: 2022-12-10T05:53:00Z
1670653618
Winds: 210 @ 5 kts
Visibility: 10.0 sm
Clouds (AGL): CLR
Temperature: -1.1 C
Dew Point: -11.7 C
Pressure: 30.129921 in Hgbr


Notes:

Data extracted from FAA Digital Chart Supplement. Effective: 0901Z Thursday, 27 JAN 2022 to 0900z Thursday, 24 MAR 2022
Current ATIS data is provided courtisy of PilotEdge.